Location: AstroGeek's Observatory
(41.9520°N, 70.9880°W)
Time: 08:40:36
(UTC-04:00)

ISS - All Passes

Search period start: 27 July 2017 00:00
Search period end: 06 August 2017 00:00
Orbit: 400 x 408 km, 51.6° (Epoch: 27 July)

Date Brightness Start Highest point End Pass type
(mag) Time Alt. Az. Time Alt. Az. Time Alt. Az.
27 Jul - 00:13:27 10° NNW 00:15:33 16° N 00:17:40 10° NE visible
27 Jul - 01:49:37 10° NW 01:52:42 38° NNE 01:55:47 10° E visible
27 Jul - 03:26:15 10° WNW 03:29:06 27° SW 03:31:55 10° SSE night (unlit)
27 Jul - 20:05:39 10° SW 20:08:53 71° SE 20:12:07 10° ENE daylight
27 Jul - 21:42:57 10° WNW 21:45:37 23° NNW 21:48:18 10° NE visible
27 Jul - 23:20:59 10° NW 23:22:57 15° N 23:24:56 10° NE visible
28 Jul - 00:57:26 10° NW 01:00:15 26° NNE 01:03:03 10° E visible
28 Jul - 02:33:41 10° WNW 02:36:53 53° SW 02:40:03 10° SE night (unlit)
28 Jul - 19:13:38 10° SSW 19:16:38 36° SE 19:19:39 10° ENE daylight
28 Jul - 20:50:09 10° W 20:53:07 32° NNW 20:56:06 10° NE visible
28 Jul - 22:28:19 10° NW 22:30:20 15° N 22:32:22 10° NNE visible
29 Jul - 00:05:13 10° NW 00:07:43 20° NNE 00:10:12 10° ENE visible
29 Jul - 01:41:19 10° NW 01:44:35 80° NE 01:47:50 10° ESE night (unlit)
29 Jul - 03:19:21 10° WSW 03:20:37 12° SW 03:21:53 10° SSW night (unlit)
29 Jul - 18:22:04 10° S 18:24:27 19° SE 18:26:52 10° E daylight
29 Jul - 19:57:31 10° WSW 20:00:41 51° NNW 20:03:52 10° NE daylight
29 Jul - 21:35:28 10° NW 21:37:43 17° N 21:39:59 10° NNE visible
29 Jul - 23:12:56 10° NNW 23:15:08 17° N 23:17:19 10° NE visible
30 Jul - 00:49:03 10° NW 00:52:12 45° NNE 00:55:21 10° ESE visible
30 Jul - 02:25:53 10° W 02:28:29 22° SW 02:31:05 10° S night (unlit)
30 Jul - 17:32:08 10° SE 17:32:20 10° SE 17:32:33 10° SE daylight
30 Jul - 19:05:04 10° SW 19:08:18 88° SSE 19:11:35 10° NE daylight
30 Jul - 20:42:34 10° WNW 20:45:08 21° NNW 20:47:41 10° NE visible
30 Jul - 22:20:30 10° NW 22:22:29 15° N 22:24:29 10° NE visible
30 Jul - 23:56:49 10° NW 23:59:44 29° NNE 00:02:38 10° E visible
31 Jul - 01:33:10 10° WNW 01:36:17 42° SW 01:39:22 10° SSE night (unlit)
31 Jul - 18:12:52 10° SSW 18:16:00 45° SE 18:19:08 10° ENE daylight
31 Jul - 19:49:42 10° W 19:52:34 28° NNW 19:55:27 10° NE daylight
31 Jul - 21:27:51 10° NW 21:29:49 15° N 21:31:49 10° NE visible
31 Jul - 23:04:34 10° NW 23:07:11 21° NNE 23:09:47 10° ENE visible
01 Aug - 00:40:43 10° WNW 00:43:58 82° SW 00:47:13 10° SE visible
01 Aug - 17:21:05 10° S 17:23:45 24° SE 17:26:26 10° E daylight
01 Aug - 18:56:57 10° WSW 19:00:05 43° NNW 19:03:12 10° NE daylight
01 Aug - 20:35:01 10° NW 20:37:10 16° N 20:39:20 10° NNE visible
01 Aug - 22:12:17 10° NNW 22:14:34 17° NNE 22:16:51 10° ENE visible
01 Aug - 23:48:22 10° NW 23:51:34 54° NNE 23:54:47 10° ESE visible
02 Aug - 01:25:28 10° W 01:27:47 18° SW 01:30:03 10° S night (unlit)
02 Aug - 16:30:03 10° SSE 16:31:34 13° SE 16:33:06 10° ESE daylight
02 Aug - 18:04:23 10° WSW 18:07:38 75° NNW 18:10:54 10° NE daylight
02 Aug - 19:42:04 10° WNW 19:44:31 19° NNW 19:46:59 10° NE daylight
02 Aug - 21:19:51 10° NNW 21:21:54 15° N 21:23:57 10° NE visible
02 Aug - 22:56:05 10° NW 22:59:05 33° NNE 23:02:05 10° E visible
03 Aug - 00:32:34 10° WNW 00:35:33 33° SW 00:38:31 10° SSE visible
03 Aug - 17:12:03 10° SW 17:15:15 57° SE 17:18:28 10° ENE daylight
03 Aug - 18:49:08 10° W 18:51:55 25° NNW 18:54:41 10° NE daylight
03 Aug - 20:27:14 10° NW 20:29:13 15° N 20:31:10 10° NE visible
03 Aug - 22:03:49 10° NW 22:06:32 24° NNE 22:09:14 10° ENE visible
03 Aug - 23:40:00 10° WNW 23:43:14 66° SW 23:46:27 10° SE visible
04 Aug - 16:20:04 10° SSW 16:22:57 29° SE 16:25:50 10° ENE daylight
04 Aug - 17:56:17 10° W 17:59:21 36° NNW 18:02:24 10° NE daylight
04 Aug - 19:34:25 10° NW 19:36:30 16° N 19:38:35 10° NNE daylight
04 Aug - 21:11:30 10° NNW 21:13:53 19° NNE 21:16:16 10° ENE visible
04 Aug - 22:47:35 10° NW 22:50:50 66° NNE 22:54:03 10° ESE visible
05 Aug - 00:25:04 10° W 00:26:56 14° SW 00:28:48 10° SSW night (unlit)
05 Aug - 15:28:39 10° S 15:30:42 16° SE 15:32:46 10° E daylight
05 Aug - 17:03:37 10° WSW 17:06:50 61° NNW 17:10:05 10° NE daylight
05 Aug - 18:41:27 10° WNW 18:43:48 18° NNW 18:46:10 10° NNE daylight
05 Aug - 20:19:05 10° NNW 20:21:12 16° N 20:23:19 10° NE daylight
05 Aug - 21:55:15 10° NW 21:58:19 38° NNE 22:01:24 10° E visible
05 Aug - 23:31:53 10° WNW 23:34:41 27° SW 23:37:29 10° SSE visible
